Retour au catalogue

STARLINK-34358

ActifCommunicationsVLEO
NORAD 64313·PAYLOAD·🇺🇸 United States

Lancé Jun 8, 2025 depuis Vandenberg Space Force Base

Loading…

Prochains Passages (prochaines 24 heures)

TLE

FraisSource: CelesTrak SupGP

Époque: Sep 15, 2026, 03:06 UTC

1 64313C 25123Y   26258.12965278 -.00052905  00000+0 -18400-2 0  2588
2 64313  69.9998  75.3237 0003046 276.6238  29.7289 15.29612785    17

Suivez STARLINK-34358 en temps réel avec AllMySat

Download on the App Store